| time (UTC) | temp F | wind direction | speed MPH | gust MPH | rain 1hr in | rain 24hr in | rain mn in | humidity % | barometer mb |
| 20260904151526 | 61 | 194 | 3.0 | 3.0 | 0.00 | 0.00 | 0.00 | 55 | 1003.7 |
| 20260904151020 | 61 | 168 | 1.0 | 2.0 | 0.00 | 0.00 | 0.00 | 56 | 1003.5 |
| 20260904150515 | 61 | 147 | 0.0 | 1.0 | 0.00 | 0.00 | 0.00 | 54 | 1003.2 |
| 20260904150009 | 61 | 127 | 0.0 | 0.0 | 0.00 | 0.00 | 0.00 | 57 | 1003.1 |
| 20260904145504 | 60 | 114 | 1.0 | 2.0 | 0.00 | 0.00 | 0.00 | 55 | 1002.9 |
| 20260904144959 | 60 | 59 | 4.0 | 5.0 | 0.00 | 0.00 | 0.00 | 55 | 1003.0 |
| 20260904144454 | 59 | 70 | 3.0 | 3.0 | 0.00 | 0.00 | 0.00 | 57 | 1002.8 |
| 20260904143950 | 58 | 52 | 3.0 | 3.0 | 0.00 | 0.00 | 0.00 | 60 | 1002.8 |
| 20260904143446 | 57 | 12 | 4.0 | 5.0 | 0.00 | 0.00 | 0.00 | 61 | 1002.7 |
| 20260904142942 | 56 | 118 | 0.0 | 1.0 | 0.00 | 0.00 | 0.00 | 65 | 1003.1 |
| 20260904142438 | 56 | 124 | 0.0 | 0.0 | 0.00 | 0.00 | 0.00 | 67 | 1003.1 |
| 20260904141933 | 56 | 283 | 3.0 | 3.0 | 0.00 | 0.00 | 0.00 | 67 | 1003.1 |
| 20260904141428 | 56 | 131 | 0.0 | 1.0 | 0.00 | 0.00 | 0.00 | 62 | 1002.9 |
| 20260904140925 | 55 | 44 | 3.0 | 3.0 | 0.00 | 0.00 | 0.00 | 65 | 1002.9 |
| 20260904140425 | 55 | 90 | 2.0 | 2.0 | 0.00 | 0.00 | 0.00 | 70 | 1003.0 |
| 20260904135923 | 54 | 179 | 2.0 | 3.0 | 0.00 | 0.00 | 0.00 | 71 | 1003.3 |
| 20260904135423 | 54 | 140 | 0.0 | 0.0 | 0.00 | 0.00 | 0.00 | 69 | 1003.2 |
| 20260904134920 | 54 | 165 | 2.0 | 2.0 | 0.00 | 0.00 | 0.00 | 69 | 1003.3 |
| 20260904134419 | 54 | 116 | 0.0 | 1.0 | 0.00 | 0.00 | 0.00 | 69 | 1003.1 |
| 20260904133914 | 54 | 86 | 2.0 | 2.0 | 0.00 | 0.00 | 0.00 | 70 | 1003.0 |
| 20260904133414 | 54 | 214 | 3.0 | 3.0 | 0.00 | 0.00 | 0.00 | 69 | 1003.1 |
| 20260904132910 | 53 | 101 | 1.0 | 2.0 | 0.00 | 0.00 | 0.00 | 69 | 1003.0 |
| 20260904132405 | 54 | 259 | 5.0 | 6.0 | 0.00 | 0.00 | 0.00 | 69 | 1003.4 |
| 20260904131904 | 55 | 223 | 3.0 | 5.0 | 0.00 | 0.00 | 0.00 | 67 | 1003.2 |
| 20260904131400 | 56 | 163 | 1.0 | 1.0 | 0.00 | 0.00 | 0.00 | 64 | 1003.4 |
| 20260904130855 | 57 | 147 | 1.0 | 1.0 | 0.00 | 0.00 | 0.00 | 61 | 1003.1 |
| 20260904130354 | 57 | 109 | 1.0 | 1.0 | 0.00 | 0.00 | 0.00 | 58 | 1003.3 |
| 20260904125849 | 57 | 106 | 1.0 | 1.0 | 0.00 | 0.00 | 0.00 | 59 | 1002.9 |
| 20260904125346 | 56 | 38 | 3.0 | 3.0 | 0.00 | 0.00 | 0.00 | 59 | 1003.0 |
| 20260904124844 | 55 | 62 | 3.0 | 3.0 | 0.00 | 0.00 | 0.00 | 60 | 1002.8 |
| 20260904124342 | 55 | 124 | 0.0 | 0.0 | 0.00 | 0.00 | 0.00 | 62 | 1002.7 |
| 20260904123837 | 55 | 129 | 0.0 | 0.0 | 0.00 | 0.00 | 0.00 | 63 | 1002.7 |
| 20260904123332 | 55 | 24 | 1.0 | 2.0 | 0.00 | 0.00 | 0.00 | 63 | 1002.5 |
| 20260904122827 | 55 | 129 | 1.0 | 1.0 | 0.00 | 0.00 | 0.00 | 62 | 1002.5 |
| 20260904122327 | 55 | 35 | 3.0 | 5.0 | 0.00 | 0.00 | 0.00 | 62 | 1002.5 |
| 20260904121821 | 56 | 39 | 5.0 | 6.0 | 0.00 | 0.00 | 0.00 | 61 | 1002.4 |
| 20260904121318 | 56 | 21 | 6.0 | 7.0 | 0.00 | 0.00 | 0.00 | 61 | 1002.5 |
| 20260904120814 | 56 | 55 | 5.0 | 5.0 | 0.00 | 0.00 | 0.00 | 61 | 1002.5 |
| 20260904120309 | 55 | 30 | 4.0 | 5.0 | 0.00 | 0.00 | 0.00 | 62 | 1002.5 |
| 20260904115804 | 54 | 86 | 3.0 | 5.0 | 0.00 | 0.00 | 0.00 | 63 | 1002.8 |
| 20260904115300 | 54 | 126 | 0.0 | 0.0 | 0.00 | 0.00 | 0.00 | 66 | 1002.9 |
| 20260904114754 | 54 | 127 | 0.0 | 0.0 | 0.00 | 0.00 | 0.00 | 65 | 1002.5 |
| 20260904114254 | 55 | 123 | 0.0 | 0.0 | 0.00 | 0.00 | 0.00 | 63 | 1002.7 |
| 20260904113749 | 56 | 26 | 4.0 | 5.0 | 0.00 | 0.00 | 0.00 | 61 | 1002.9 |
| 20260904113248 | 56 | 36 | 5.0 | 6.0 | 0.00 | 0.00 | 0.00 | 60 | 1002.8 |
| 20260904112743 | 56 | 69 | 3.0 | 3.0 | 0.00 | 0.00 | 0.00 | 61 | 1002.5 |
| 20260904112239 | 56 | 60 | 3.0 | 3.0 | 0.00 | 0.00 | 0.00 | 61 | 1002.7 |
| 20260904111735 | 56 | 55 | 3.0 | 5.0 | 0.00 | 0.00 | 0.00 | 61 | 1002.7 |
| 20260904111231 | 57 | 49 | 4.0 | 6.0 | 0.00 | 0.00 | 0.00 | 61 | 1002.8 |
| 20260904110726 | 57 | 31 | 6.0 | 7.0 | 0.00 | 0.00 | 0.00 | 59 | 1002.9 |
| 20260904110225 | 58 | 60 | 9.0 | 10.0 | 0.00 | 0.00 | 0.00 | 58 | 1002.8 |
| 20260904105720 | 59 | 54 | 10.0 | 11.0 | 0.00 | 0.00 | 0.00 | 57 | 1002.8 |
| 20260904105214 | 59 | 57 | 10.0 | 13.0 | 0.00 | 0.00 | 0.00 | 55 | 1002.9 |
| 20260904104710 | 59 | 56 | 11.0 | 11.0 | 0.00 | 0.00 | 0.00 | 54 | 1003.2 |
| 20260904104206 | 59 | 53 | 10.0 | 13.0 | 0.00 | 0.00 | 0.00 | 54 | 1003.2 |
| 20260904103702 | 59 | 35 | 7.0 | 10.0 | 0.00 | 0.00 | 0.00 | 54 | 1003.2 |
| 20260904103157 | 59 | 22 | 7.0 | 9.0 | 0.00 | 0.00 | 0.00 | 55 | 1003.2 |
| 20260904102653 | 59 | 27 | 5.0 | 6.0 | 0.00 | 0.00 | 0.00 | 55 | 1003.3 |
| 20260904102148 | 59 | 47 | 8.0 | 9.0 | 0.00 | 0.00 | 0.00 | 55 | 1003.3 |
| 20260904101645 | 60 | 16 | 7.0 | 8.0 | 0.00 | 0.00 | 0.00 | 55 | 1003.4 |
| 20260904101140 | 60 | 27 | 6.0 | 7.0 | 0.00 | 0.00 | 0.00 | 54 | 1003.4 |
| 20260904100636 | 61 | 35 | 8.0 | 10.0 | 0.00 | 0.00 | 0.00 | 53 | 1003.5 |
| 20260904100131 | 61 | 25 | 9.0 | 11.0 | 0.00 | 0.00 | 0.00 | 51 | 1003.3 |
| 20260904095625 | 60 | 31 | 7.0 | 9.0 | 0.00 | 0.00 | 0.00 | 52 | 1003.3 |
| 20260904095126 | 60 | 20 | 5.0 | 7.0 | 0.00 | 0.00 | 0.00 | 54 | 1003.3 |
| 20260904094621 | 59 | 54 | 6.0 | 7.0 | 0.00 | 0.00 | 0.00 | 54 | 1003.3 |
| 20260904094116 | 59 | 55 | 6.0 | 8.0 | 0.00 | 0.00 | 0.00 | 55 | 1003.5 |
| 20260904093613 | 59 | 51 | 7.0 | 8.0 | 0.00 | 0.00 | 0.00 | 56 | 1003.3 |
| 20260904093112 | 58 | 46 | 10.0 | 13.0 | 0.00 | 0.00 | 0.00 | 56 | 1003.6 |
| 20260904092609 | 57 | 37 | 5.0 | 6.0 | 0.00 | 0.00 | 0.00 | 58 | 1003.4 |
| 20260904092105 | 57 | 37 | 5.0 | 6.0 | 0.00 | 0.00 | 0.00 | 60 | 1003.6 |
| 20260904091601 | 56 | 93 | 2.0 | 2.0 | 0.00 | 0.00 | 0.00 | 61 | 1003.7 |
| 20260904091100 | 56 | 37 | 4.0 | 5.0 | 0.00 | 0.00 | 0.00 | 62 | 1003.4 |
| 20260904090556 | 56 | 104 | 2.0 | 2.0 | 0.00 | 0.00 | 0.00 | 62 | 1003.7 |
| 20260904090051 | 56 | 55 | 2.0 | 3.0 | 0.00 | 0.00 | 0.00 | 62 | 1004.0 |
| 20260904085546 | 57 | 68 | 2.0 | 2.0 | 0.00 | 0.00 | 0.00 | 60 | 1003.7 |
| 20260904085045 | 57 | 65 | 5.0 | 7.0 | 0.00 | 0.00 | 0.00 | 60 | 1003.9 |
| 20260904084541 | 57 | 88 | 1.0 | 1.0 | 0.00 | 0.00 | 0.00 | 61 | 1004.2 |
| 20260904084037 | 57 | 110 | 1.0 | 1.0 | 0.00 | 0.00 | 0.00 | 60 | 1004.3 |
| 20260904083533 | 56 | 96 | 1.0 | 2.0 | 0.00 | 0.00 | 0.00 | 62 | 1004.3 |
| 20260904083029 | 55 | 21 | 2.0 | 2.0 | 0.00 | 0.00 | 0.00 | 65 | 1004.4 |
| 20260904082524 | 55 | 117 | 1.0 | 1.0 | 0.00 | 0.00 | 0.00 | 67 | 1004.4 |
| 20260904082019 | 55 | 119 | 0.0 | 0.0 | 0.00 | 0.00 | 0.00 | 67 | 1004.5 |
| 20260904081514 | 56 | 147 | 0.0 | 1.0 | 0.00 | 0.00 | 0.00 | 66 | 1004.6 |
| 20260904081010 | 56 | 148 | 0.0 | 1.0 | 0.00 | 0.00 | 0.00 | 65 | 1004.5 |
| 20260904080505 | 55 | 148 | 0.0 | 0.0 | 0.00 | 0.00 | 0.00 | 67 | 1004.5 |
| 20260904080001 | 54 | 156 | 1.0 | 2.0 | 0.00 | 0.00 | 0.00 | 69 | 1004.7 |
| 20260904075457 | 55 | 146 | 1.0 | 1.0 | 0.00 | 0.00 | 0.00 | 68 | 1004.8 |
| 20260904074956 | 55 | 143 | 0.0 | 0.0 | 0.00 | 0.00 | 0.00 | 63 | 1004.6 |
| 20260904074451 | 54 | 140 | 0.0 | 1.0 | 0.00 | 0.00 | 0.00 | 69 | 1004.7 |
| 20260904073946 | 55 | 116 | 0.0 | 1.0 | 0.00 | 0.00 | 0.00 | 67 | 1005.2 |
| 20260904073441 | 55 | 91 | 1.0 | 2.0 | 0.00 | 0.00 | 0.00 | 67 | 1004.8 |
| 20260904072937 | 55 | 96 | 2.0 | 2.0 | 0.00 | 0.00 | 0.00 | 67 | 1005.1 |
| 20260904072433 | 55 | 125 | 0.0 | 0.0 | 0.00 | 0.00 | 0.00 | 68 | 1004.9 |
| 20260904071927 | 55 | 127 | 0.0 | 0.0 | 0.00 | 0.00 | 0.00 | 68 | 1005.1 |
| 20260904071423 | 55 | 120 | 1.0 | 1.0 | 0.00 | 0.00 | 0.00 | 67 | 1005.2 |
| 20260904070918 | 55 | 127 | 0.0 | 0.0 | 0.00 | 0.00 | 0.00 | 66 | 1005.5 |
| 20260904070416 | 56 | 132 | 0.0 | 0.0 | 0.00 | 0.00 | 0.00 | 67 | 1005.3 |
| 20260904065910 | 56 | 124 | 0.0 | 0.0 | 0.00 | 0.00 | 0.00 | 67 | 1005.4 |
| 20260904065407 | 56 | 130 | 0.0 | 0.0 | 0.00 | 0.00 | 0.00 | 67 | 1005.3 |
| 20260904064906 | 56 | 131 | 1.0 | 2.0 | 0.00 | 0.00 | 0.00 | 65 | 1004.9 |
| 20260904064403 | 56 | 80 | 2.0 | 2.0 | 0.00 | 0.00 | 0.00 | 65 | 1005.3 |
| 20260904063858 | 56 | 120 | 1.0 | 1.0 | 0.00 | 0.00 | 0.00 | 66 | 1005.1 |
| 20260904063354 | 56 | 114 | 0.0 | 1.0 | 0.00 | 0.00 | 0.00 | 65 | 1005.3 |
| 20260904062849 | 56 | 112 | 0.0 | 0.0 | 0.00 | 0.00 | 0.00 | 65 | 1005.4 |
| 20260904062345 | 56 | 114 | 1.0 | 1.0 | 0.00 | 0.00 | 0.00 | 65 | 1005.2 |
| 20260904061841 | 57 | 125 | 0.0 | 0.0 | 0.00 | 0.00 | 0.00 | 65 | 1004.8 |
| 20260904061337 | 57 | 121 | 0.0 | 0.0 | 0.00 | 0.00 | 0.00 | 63 | 1005.2 |
| 20260904060833 | 57 | 99 | 1.0 | 2.0 | 0.00 | 0.00 | 0.00 | 62 | 1005.3 |
| 20260904060329 | 57 | 119 | 1.0 | 1.0 | 0.00 | 0.00 | 0.00 | 64 | 1005.1 |
| 20260904055824 | 57 | 121 | 0.0 | 1.0 | 0.00 | 0.00 | 0.00 | 64 | 1005.2 |
| 20260904055319 | 56 | 90 | 0.0 | 1.0 | 0.00 | 0.00 | 0.00 | 64 | 1005.1 |
| 20260904054814 | 56 | 127 | 0.0 | 0.0 | 0.00 | 0.00 | 0.00 | 64 | 1005.2 |
| 20260904054310 | 56 | 124 | 0.0 | 0.0 | 0.00 | 0.00 | 0.00 | 66 | 1005.4 |
| 20260904053800 | 56 | 133 | 0.0 | 0.0 | 0.00 | 0.00 | 0.00 | 66 | 1005.2 |
| 20260904053259 | 56 | 133 | 0.0 | 0.0 | 0.00 | 0.00 | 0.00 | 64 | 1005.4 |
| 20260904052756 | 56 | 129 | 0.0 | 0.0 | 0.00 | 0.00 | 0.00 | 63 | 1005.4 |
| 20260904052252 | 56 | 125 | 0.0 | 0.0 | 0.00 | 0.00 | 0.00 | 64 | 1005.8 |
| 20260904051748 | 56 | 132 | 0.0 | 0.0 | 0.00 | 0.00 | 0.00 | 64 | 1005.7 |
| 20260904051243 | 57 | 132 | 0.0 | 0.0 | 0.00 | 0.00 | 0.00 | 63 | 1006.0 |
| 20260904050738 | 57 | 127 | 0.0 | 0.0 | 0.00 | 0.00 | 0.00 | 62 | 1005.7 |
| 20260904050235 | 57 | 128 | 0.0 | 0.0 | 0.00 | 0.00 | 0.00 | 62 | 1005.9 |
| 20260904045734 | 57 | 125 | 0.0 | 1.0 | 0.00 | 0.00 | 0.00 | 62 | 1005.7 |
| 20260904045229 | 57 | 132 | 0.0 | 0.0 | 0.00 | 0.00 | 0.00 | 62 | 1005.7 |
| 20260904044724 | 58 | 132 | 0.0 | 1.0 | 0.00 | 0.00 | 0.00 | 61 | 1006.0 |
| 20260904044221 | 57 | 129 | 0.0 | 0.0 | 0.00 | 0.00 | 0.00 | 60 | 1005.8 |
| 20260904043717 | 57 | 134 | 0.0 | 0.0 | 0.00 | 0.00 | 0.00 | 60 | 1005.9 |
| 20260904043213 | 57 | 129 | 0.0 | 0.0 | 0.00 | 0.00 | 0.00 | 60 | 1005.9 |
| 20260904042709 | 57 | 127 | 0.0 | 0.0 | 0.00 | 0.00 | 0.00 | 60 | 1006.3 |
| 20260904042205 | 57 | 126 | 1.0 | 1.0 | 0.00 | 0.00 | 0.00 | 60 | 1006.0 |
| 20260904041704 | 57 | 121 | 1.0 | 1.0 | 0.00 | 0.00 | 0.00 | 60 | 1006.0 |
| 20260904041201 | 56 | 127 | 0.0 | 0.0 | 0.00 | 0.00 | 0.00 | 62 | 1005.8 |
| 20260904040656 | 56 | 126 | 0.0 | 1.0 | 0.00 | 0.00 | 0.00 | 62 | 1005.7 |
| 20260904040152 | 56 | 132 | 0.0 | 0.0 | 0.00 | 0.00 | 0.00 | 62 | 1005.6 |
| 20260904035647 | 56 | 114 | 0.0 | 0.0 | 0.00 | 0.00 | 0.00 | 60 | 1005.9 |
| 20260904035142 | 57 | 120 | 0.0 | 0.0 | 0.00 | 0.00 | 0.00 | 59 | 1005.8 |
| 20260904034641 | 56 | 6 | 4.0 | 5.0 | 0.00 | 0.00 | 0.00 | 58 | 1005.8 |
| 20260904034137 | 56 | 133 | 0.0 | 0.0 | 0.00 | 0.00 | 0.00 | 61 | 1005.5 |
| 20260904033633 | 55 | 133 | 0.0 | 1.0 | 0.00 | 0.00 | 0.00 | 61 | 1005.6 |
| 20260904033130 | 55 | 130 | 0.0 | 1.0 | 0.00 | 0.00 | 0.00 | 62 | 1005.7 |
| 20260904032626 | 55 | 108 | 1.0 | 1.0 | 0.00 | 0.00 | 0.00 | 62 | 1005.8 |
| 20260904032124 | 56 | 127 | 1.0 | 1.0 | 0.00 | 0.00 | 0.00 | 63 | 1005.9 |
| 20260904031624 | 57 | 130 | 0.0 | 0.0 | 0.00 | 0.00 | 0.00 | 60 | 1005.6 |
| 20260904031120 | 57 | 116 | 1.0 | 1.0 | 0.00 | 0.00 | 0.00 | 59 | 1005.8 |
| 20260904030616 | 58 | 92 | 3.0 | 3.0 | 0.00 | 0.00 | 0.00 | 57 | 1005.8 |
| 20260904030111 | 58 | 62 | 3.0 | 3.0 | 0.00 | 0.00 | 0.00 | 57 | 1005.6 |
| 20260904025607 | 59 | 126 | 0.0 | 1.0 | 0.00 | 0.00 | 0.00 | 56 | 1005.6 |
| 20260904025101 | 59 | 125 | 0.0 | 0.0 | 0.00 | 0.00 | 0.00 | 54 | 1005.4 |
| 20260904024557 | 60 | 99 | 2.0 | 2.0 | 0.00 | 0.00 | 0.00 | 54 | 1005.6 |
| 20260904024053 | 60 | 126 | 0.0 | 0.0 | 0.00 | 0.00 | 0.00 | 54 | 1005.5 |
| 20260904023549 | 61 | 110 | 0.0 | 1.0 | 0.00 | 0.00 | 0.00 | 52 | 1005.4 |
| 20260904023044 | 61 | 127 | 2.0 | 3.0 | 0.00 | 0.00 | 0.00 | 52 | 1005.2 |
| 20260904022539 | 62 | 134 | 0.0 | 0.0 | 0.00 | 0.00 | 0.00 | 52 | 1004.9 |
| 20260904022036 | 63 | 130 | 2.0 | 2.0 | 0.00 | 0.00 | 0.00 | 49 | 1005.1 |
| 20260904021531 | 64 | 49 | 6.0 | 7.0 | 0.00 | 0.00 | 0.00 | 46 | 1005.1 |
| 20260904021026 | 64 | 109 | 4.0 | 5.0 | 0.00 | 0.00 | 0.00 | 47 | 1005.3 |
| 20260904020526 | 64 | 81 | 4.0 | 5.0 | 0.00 | 0.00 | 0.00 | 47 | 1005.1 |
| 20260904020021 | 64 | 133 | 3.0 | 3.0 | 0.00 | 0.00 | 0.00 | 47 | 1004.9 |
| 20260904015515 | 65 | 47 | 3.0 | 3.0 | 0.00 | 0.00 | 0.00 | 47 | 1004.8 |
| 20260904015014 | 65 | 113 | 1.0 | 2.0 | 0.00 | 0.00 | 0.00 | 46 | 1004.7 |
| 20260904014509 | 66 | 132 | 0.0 | 0.0 | 0.00 | 0.00 | 0.00 | 45 | 1004.7 |
| 20260904014004 | 67 | 131 | 0.0 | 0.0 | 0.00 | 0.00 | 0.00 | 44 | 1004.6 |
| 20260904013501 | 68 | 129 | 0.0 | 0.0 | 0.00 | 0.00 | 0.00 | 43 | 1004.7 |
| 20260904012957 | 69 | 135 | 0.0 | 0.0 | 0.00 | 0.00 | 0.00 | 42 | 1004.6 |
| 20260904012456 | 70 | 146 | 1.0 | 1.0 | 0.00 | 0.00 | 0.00 | 40 | 1004.7 |
| 20260904011950 | 71 | 139 | 0.0 | 1.0 | 0.00 | 0.00 | 0.00 | 39 | 1004.5 |
| 20260904011445 | 71 | 130 | 0.0 | 0.0 | 0.00 | 0.00 | 0.00 | 39 | 1004.6 |
| 20260904010941 | 72 | 138 | 1.0 | 1.0 | 0.00 | 0.00 | 0.00 | 38 | 1004.6 |
| 20260904010437 | 72 | 143 | 3.0 | 6.0 | 0.00 | 0.00 | 0.00 | 37 | 1004.6 |
| 20260904005932 | 72 | 131 | 3.0 | 6.0 | 0.00 | 0.00 | 0.00 | 37 | 1004.7 |
| 20260904005428 | 72 | 145 | 1.0 | 2.0 | 0.00 | 0.00 | 0.00 | 36 | 1004.7 |
| 20260904004928 | 73 | 344 | 3.0 | 5.0 | 0.00 | 0.00 | 0.00 | 36 | 1004.6 |
| 20260904004424 | 73 | 66 | 4.0 | 7.0 | 0.00 | 0.00 | 0.00 | 36 | 1004.5 |
| 20260904003919 | 73 | 303 | 6.0 | 9.0 | 0.00 | 0.00 | 0.00 | 36 | 1004.7 |
| 20260904003414 | 74 | 82 | 3.0 | 5.0 | 0.00 | 0.00 | 0.00 | 36 | 1004.5 |
| 20260904002909 | 74 | 220 | 2.0 | 2.0 | 0.00 | 0.00 | 0.00 | 36 | 1004.7 |
| 20260904002406 | 74 | 136 | 2.0 | 2.0 | 0.00 | 0.00 | 0.00 | 36 | 1004.6 |
| 20260904001904 | 74 | 309 | 8.0 | 15.0 | 0.00 | 0.00 | 0.00 | 35 | 1004.7 |
| 20260904001400 | 75 | 299 | 5.0 | 11.0 | 0.00 | 0.00 | 0.00 | 35 | 1004.6 |
| 20260904000855 | 75 | 316 | 8.0 | 10.0 | 0.00 | 0.00 | 0.00 | 34 | 1004.6 |
| 20260904000355 | 75 | 306 | 13.0 | 15.0 | 0.00 | 0.00 | 0.00 | 34 | 1004.3 |
| 20260903235849 | 75 | 286 | 7.0 | 9.0 | 0.00 | 0.00 | 0.00 | 35 | 1004.2 |
| 20260903235345 | 75 | 321 | 7.0 | 8.0 | 0.00 | 0.00 | 0.00 | 34 | 1004.3 |
| 20260903234844 | 75 | 248 | 10.0 | 11.0 | 0.00 | 0.00 | 0.00 | 34 | 1004.4 |
| 20260903234340 | 75 | 91 | 3.0 | 5.0 | 0.00 | 0.00 | 0.00 | 35 | 1004.4 |
| 20260903233836 | 75 | 295 | 10.0 | 11.0 | 0.00 | 0.00 | 0.00 | 34 | 1004.3 |
| 20260903233332 | 75 | 328 | 7.0 | 9.0 | 0.00 | 0.00 | 0.00 | 34 | 1004.0 |
| 20260903232831 | 75 | 301 | 9.0 | 9.0 | 0.00 | 0.00 | 0.00 | 34 | 1004.1 |
| 20260903232327 | 76 | 326 | 6.0 | 7.0 | 0.00 | 0.00 | 0.00 | 35 | 1004.0 |
| 20260903231826 | 76 | 143 | 6.0 | 8.0 | 0.00 | 0.00 | 0.00 | 35 | 1004.0 |
| 20260903231322 | 76 | 292 | 11.0 | 13.0 | 0.00 | 0.00 | 0.00 | 34 | 1004.1 |
| 20260903230817 | 76 | 275 | 12.0 | 14.0 | 0.00 | 0.00 | 0.00 | 34 | 1004.1 |
| 20260903230312 | 76 | 308 | 7.0 | 8.0 | 0.00 | 0.00 | 0.00 | 34 | 1003.7 |
| 20260903225808 | 77 | 328 | 10.0 | 11.0 | 0.00 | 0.00 | 0.00 | 34 | 1004.1 |
| 20260903225306 | 77 | 268 | 12.0 | 15.0 | 0.00 | 0.00 | 0.00 | 31 | 1004.1 |
| 20260903224801 | 77 | 244 | 7.0 | 8.0 | 0.00 | 0.00 | 0.00 | 30 | 1004.0 |
| 20260903224256 | 77 | 262 | 13.0 | 15.0 | 0.00 | 0.00 | 0.00 | 30 | 1004.0 |
| 20260903223751 | 77 | 283 | 10.0 | 14.0 | 0.00 | 0.00 | 0.00 | 32 | 1004.1 |
| 20260903223250 | 77 | 276 | 9.0 | 10.0 | 0.00 | 0.00 | 0.00 | 32 | 1003.9 |
| 20260903222745 | 77 | 223 | 6.0 | 7.0 | 0.00 | 0.00 | 0.00 | 32 | 1003.6 |
| 20260903222244 | 77 | 266 | 8.0 | 9.0 | 0.00 | 0.00 | 0.00 | 31 | 1003.9 |
| 20260903221739 | 77 | 229 | 11.0 | 15.0 | 0.00 | 0.00 | 0.00 | 31 | 1003.6 |
| 20260903221238 | 77 | 231 | 15.0 | 18.0 | 0.00 | 0.00 | 0.00 | 31 | 1003.6 |
| 20260903220736 | 76 | 258 | 9.0 | 10.0 | 0.00 | 0.00 | 0.00 | 32 | 1003.5 |
| 20260903220231 | 76 | 254 | 8.0 | 10.0 | 0.00 | 0.00 | 0.00 | 32 | 1003.5 |
| 20260903215730 | 76 | 235 | 7.0 | 8.0 | 0.00 | 0.00 | 0.00 | 32 | 1003.5 |
| 20260903215226 | 77 | 230 | 18.0 | 22.0 | 0.00 | 0.00 | 0.00 | 31 | 1003.9 |
| 20260903214724 | 77 | 243 | 9.0 | 10.0 | 0.00 | 0.00 | 0.00 | 31 | 1003.4 |
| 20260903214220 | 77 | 268 | 10.0 | 14.0 | 0.00 | 0.00 | 0.00 | 32 | 1003.6 |
| 20260903213714 | 76 | 239 | 11.0 | 13.0 | 0.00 | 0.00 | 0.00 | 31 | 1003.3 |
| 20260903213210 | 77 | 214 | 10.0 | 11.0 | 0.00 | 0.00 | 0.00 | 31 | 1003.2 |
| 20260903212706 | 76 | 211 | 9.0 | 13.0 | 0.00 | 0.00 | 0.00 | 32 | 1003.3 |
| 20260903212202 | 76 | 253 | 12.0 | 14.0 | 0.00 | 0.00 | 0.00 | 32 | 1003.3 |
| 20260903211655 | 77 | 221 | 14.0 | 16.0 | 0.00 | 0.00 | 0.00 | 31 | 1003.2 |
| 20260903211153 | 77 | 288 | 12.0 | 15.0 | 0.00 | 0.00 | 0.00 | 31 | 1003.4 |
| 20260903210648 | 77 | 213 | 5.0 | 6.0 | 0.00 | 0.00 | 0.00 | 32 | 1003.6 |
| 20260903210143 | 75 | 260 | 9.0 | 11.0 | 0.00 | 0.00 | 0.00 | 32 | 1003.4 |
| 20260903205637 | 76 | 243 | 11.0 | 14.0 | 0.00 | 0.00 | 0.00 | 32 | 1003.4 |
| 20260903205136 | 76 | 259 | 11.0 | 14.0 | 0.00 | 0.00 | 0.00 | 32 | 1003.1 |
| 20260903204632 | 76 | 197 | 7.0 | 11.0 | 0.00 | 0.00 | 0.00 | 32 | 1003.2 |
| 20260903204128 | 77 | 209 | 11.0 | 13.0 | 0.00 | 0.00 | 0.00 | 32 | 1003.4 |
| 20260903203623 | 77 | 286 | 10.0 | 13.0 | 0.00 | 0.00 | 0.00 | 33 | 1003.2 |
| 20260903203118 | 76 | 212 | 8.0 | 11.0 | 0.00 | 0.00 | 0.00 | 34 | 1003.2 |
| 20260903202613 | 76 | 240 | 6.0 | 8.0 | 0.00 | 0.00 | 0.00 | 33 | 1003.3 |
| 20260903202108 | 76 | 238 | 8.0 | 13.0 | 0.00 | 0.00 | 0.00 | 33 | 1003.4 |
| 20260903201557 | 76 | 214 | 11.0 | 14.0 | 0.00 | 0.00 | 0.00 | 32 | 1003.4 |
| 20260903201056 | 76 | 220 | 9.0 | 13.0 | 0.00 | 0.00 | 0.00 | 33 | 1003.5 |
| 20260903200551 | 75 | 241 | 11.0 | 13.0 | 0.00 | 0.00 | 0.00 | 32 | 1003.2 |
| 20260903200046 | 75 | 205 | 6.0 | 7.0 | 0.00 | 0.00 | 0.00 | 34 | 1003.4 |
| 20260903195543 | 75 | 193 | 7.0 | 9.0 | 0.00 | 0.00 | 0.00 | 34 | 1003.7 |
| 20260903195038 | 75 | 228 | 10.0 | 11.0 | 0.00 | 0.00 | 0.00 | 34 | 1003.5 |
| 20260903194533 | 75 | 254 | 10.0 | 15.0 | 0.00 | 0.00 | 0.00 | 35 | 1003.9 |
| 20260903194028 | 75 | 199 | 6.0 | 7.0 | 0.00 | 0.00 | 0.00 | 34 | 1003.5 |
| 20260903193524 | 74 | 184 | 7.0 | 9.0 | 0.00 | 0.00 | 0.00 | 34 | 1003.5 |
| 20260903193014 | 74 | 197 | 8.0 | 10.0 | 0.00 | 0.00 | 0.00 | 35 | 1003.4 |
| 20260903192511 | 75 | 240 | 9.0 | 10.0 | 0.00 | 0.00 | 0.00 | 34 | 1003.4 |
| 20260903192010 | 75 | 216 | 8.0 | 11.0 | 0.00 | 0.00 | 0.00 | 34 | 1003.2 |
| 20260903191507 | 74 | 198 | 5.0 | 7.0 | 0.00 | 0.00 | 0.00 | 36 | 1003.4 |
| 20260903191001 | 75 | 203 | 5.0 | 6.0 | 0.00 | 0.00 | 0.00 | 35 | 1003.5 |
| 20260903190501 | 75 | 250 | 7.0 | 9.0 | 0.00 | 0.00 | 0.00 | 35 | 1003.5 |
| 20260903185954 | 74 | 211 | 4.0 | 7.0 | 0.00 | 0.00 | 0.00 | 36 | 1003.5 |
| 20260903185450 | 74 | 236 | 11.0 | 15.0 | 0.00 | 0.00 | 0.00 | 36 | 1003.6 |
| 20260903184944 | 73 | 211 | 9.0 | 10.0 | 0.00 | 0.00 | 0.00 | 36 | 1003.6 |
| 20260903184442 | 73 | 217 | 7.0 | 9.0 | 0.00 | 0.00 | 0.00 | 35 | 1003.4 |
| 20260903183942 | 73 | 209 | 9.0 | 13.0 | 0.00 | 0.00 | 0.00 | 35 | 1003.6 |
| 20260903183436 | 73 | 236 | 9.0 | 9.0 | 0.00 | 0.00 | 0.00 | 35 | 1003.6 |
| 20260903182935 | 73 | 245 | 7.0 | 10.0 | 0.00 | 0.00 | 0.00 | 35 | 1003.6 |
| 20260903182434 | 73 | 251 | 15.0 | 20.0 | 0.00 | 0.00 | 0.00 | 35 | 1003.9 |
| 20260903181930 | 73 | 231 | 10.0 | 11.0 | 0.00 | 0.00 | 0.00 | 36 | 1003.5 |
| 20260903181425 | 73 | 253 | 11.0 | 14.0 | 0.00 | 0.00 | 0.00 | 36 | 1003.9 |
| 20260903180924 | 73 | 235 | 12.0 | 14.0 | 0.00 | 0.00 | 0.00 | 36 | 1003.7 |
| 20260903180419 | 73 | 265 | 12.0 | 15.0 | 0.00 | 0.00 | 0.00 | 37 | 1003.4 |
| 20260903175918 | 72 | 231 | 8.0 | 9.0 | 0.00 | 0.00 | 0.00 | 37 | 1003.7 |
| 20260903175413 | 72 | 227 | 8.0 | 9.0 | 0.00 | 0.00 | 0.00 | 37 | 1003.7 |
| 20260903174907 | 72 | 209 | 16.0 | 18.0 | 0.00 | 0.00 | 0.00 | 36 | 1003.7 |
| 20260903174402 | 72 | 251 | 12.0 | 15.0 | 0.00 | 0.00 | 0.00 | 37 | 1003.6 |
| 20260903173857 | 72 | 215 | 9.0 | 11.0 | 0.00 | 0.00 | 0.00 | 38 | 1003.7 |
| 20260903173352 | 72 | 228 | 11.0 | 13.0 | 0.00 | 0.00 | 0.00 | 38 | 1003.7 |
| 20260903172848 | 72 | 262 | 11.0 | 13.0 | 0.00 | 0.00 | 0.00 | 38 | 1003.5 |
| 20260903172342 | 71 | 236 | 6.0 | 8.0 | 0.00 | 0.00 | 0.00 | 39 | 1003.5 |
| 20260903171838 | 71 | 252 | 14.0 | 17.0 | 0.00 | 0.00 | 0.00 | 39 | 1003.9 |
| 20260903171333 | 71 | 234 | 7.0 | 8.0 | 0.00 | 0.00 | 0.00 | 39 | 1003.7 |
| 20260903170832 | 70 | 217 | 9.0 | 13.0 | 0.00 | 0.00 | 0.00 | 40 | 1004.2 |
| 20260903170327 | 69 | 263 | 5.0 | 7.0 | 0.00 | 0.00 | 0.00 | 45 | 1004.0 |
| 20260903165825 | 69 | 319 | 4.0 | 5.0 | 0.00 | 0.00 | 0.00 | 47 | 1003.5 |
| 20260903165325 | 69 | 223 | 5.0 | 6.0 | 0.00 | 0.00 | 0.00 | 46 | 1003.9 |
| 20260903164820 | 69 | 156 | 2.0 | 3.0 | 0.00 | 0.00 | 0.00 | 50 | 1004.0 |
| 20260903164315 | 68 | 142 | 1.0 | 1.0 | 0.00 | 0.00 | 0.00 | 50 | 1004.1 |
| 20260903163814 | 67 | 115 | 1.0 | 2.0 | 0.00 | 0.00 | 0.00 | 50 | 1003.7 |
| 20260903163312 | 66 | 241 | 3.0 | 3.0 | 0.00 | 0.00 | 0.00 | 55 | 1004.1 |
| 20260903162807 | 65 | 317 | 5.0 | 6.0 | 0.00 | 0.00 | 0.00 | 54 | 1003.9 |
| 20260903162306 | 65 | 122 | 2.0 | 3.0 | 0.00 | 0.00 | 0.00 | 55 | 1004.0 |
| 20260903161759 | 66 | 152 | 2.0 | 2.0 | 0.00 | 0.00 | 0.00 | 53 | 1004.0 |
| 20260903161254 | 66 | 122 | 0.0 | 1.0 | 0.00 | 0.00 | 0.00 | 55 | 1004.0 |
| 20260903160749 | 64 | 135 | 0.0 | 1.0 | 0.00 | 0.00 | 0.00 | 56 | 1004.1 |
| 20260903160248 | 64 | 197 | 3.0 | 5.0 | 0.00 | 0.00 | 0.00 | 55 | 1004.0 |
| 20260903155747 | 63 | 136 | 0.0 | 1.0 | 0.00 | 0.00 | 0.00 | 61 | 1003.9 |
| 20260903155242 | 60 | 152 | 2.0 | 2.0 | 0.00 | 0.00 | 0.00 | 63 | 1004.0 |
| 20260903154738 | 59 | 105 | 0.0 | 1.0 | 0.00 | 0.00 | 0.00 | 69 | 1003.9 |
| 20260903154234 | 57 | 139 | 0.0 | 1.0 | 0.00 | 0.00 | 0.00 | 71 | 1004.2 |
| 20260903153729 | 57 | 127 | 0.0 | 0.0 | 0.00 | 0.00 | 0.00 | 73 | 1004.1 |
| 20260903153225 | 57 | 90 | 1.0 | 2.0 | 0.00 | 0.00 | 0.00 | 73 | 1004.0 |
| 20260903152721 | 57 | 31 | 3.0 | 5.0 | 0.00 | 0.00 | 0.00 | 74 | 1004.2 |
| 20260903152217 | 57 | 264 | 4.0 | 5.0 | 0.00 | 0.00 | 0.00 | 71 | 1004.3 |